Time,TemperatureF,DewpointF,PressureIn,WindDirection,WindDirectionDegrees,WindSpeedMPH,WindSpeedGustMPH,Humidity,HourlyPrecipIn,Conditions,Clouds,dailyrainin,SoftwareType,DateUTC
2013-01-06 00:02:00,40.8,37.8,29.99,East,82,0.0,2.0,89,0.00,,,0.20,meteohub,2013-01-06 08:02:00,
2013-01-06 00:07:00,40.6,37.6,29.99,East,82,0.0,2.0,89,0.00,,,0.00,meteohub,2013-01-06 08:07:00,
2013-01-06 00:12:00,40.6,37.6,29.99,East,95,0.0,2.0,89,0.00,,,0.00,meteohub,2013-01-06 08:12:00,
2013-01-06 00:17:00,40.6,37.6,29.99,East,95,0.0,1.0,89,0.00,,,0.00,meteohub,2013-01-06 08:17:00,
2013-01-06 00:22:00,40.6,37.6,29.99,East,95,0.0,2.0,89,0.00,,,0.00,meteohub,2013-01-06 08:22:00,
2013-01-06 00:27:00,40.6,37.6,30.00,East,95,0.0,2.0,89,0.00,,,0.00,meteohub,2013-01-06 08:27:00,
2013-01-06 00:32:00,40.6,37.6,30.00,East,95,0.0,2.0,89,0.00,,,0.00,meteohub,2013-01-06 08:32:00,
2013-01-06 00:37:00,40.6,37.6,30.00,East,95,0.0,2.0,89,0.00,,,0.00,meteohub,2013-01-06 08:37:00,
2013-01-06 00:41:00,40.5,37.4,30.00,East,95,0.0,2.0,89,0.00,,,0.00,meteohub,2013-01-06 08:41:00,
2013-01-06 00:47:00,40.6,37.6,29.99,East,95,0.0,2.0,89,0.00,,,0.00,meteohub,2013-01-06 08:47:00,
2013-01-06 00:52:00,40.6,37.6,29.99,East,95,0.0,2.0,89,0.00,,,0.00,meteohub,2013-01-06 08:52:00,
2013-01-06 00:57:00,40.6,37.6,29.99,East,94,0.0,2.0,89,0.00,,,0.00,meteohub,2013-01-06 08:57:00,
2013-01-06 01:02:00,40.8,37.8,29.99,East,94,0.0,2.0,89,0.00,,,0.00,meteohub,2013-01-06 09:02:00,
2013-01-06 01:07:00,40.8,37.8,30.00,ENE,67,0.0,2.0,89,0.00,,,0.00,meteohub,2013-01-06 09:07:00,
2013-01-06 01:12:00,41.0,37.9,30.00,ENE,68,0.0,2.0,89,0.00,,,0.00,meteohub,2013-01-06 09:12:00,
2013-01-06 01:17:00,41.0,37.9,30.00,ESE,105,0.0,2.0,89,0.00,,,0.00,meteohub,2013-01-06 09:17:00,
2013-01-06 01:22:00,41.2,38.1,30.00,ESE,105,0.0,2.0,89,0.00,,,0.00,meteohub,2013-01-06 09:22:00,
2013-01-06 01:27:00,41.2,37.9,30.01,East,91,0.0,2.0,88,0.00,,,0.00,meteohub,2013-01-06 09:27:00,
2013-01-06 01:32:00,41.2,37.9,30.00,ENE,74,2.0,2.0,88,0.00,,,0.00,meteohub,2013-01-06 09:32:00,
2013-01-06 01:37:00,41.2,37.9,30.00,ENE,68,0.0,3.0,88,0.00,,,0.00,meteohub,2013-01-06 09:37:00,
2013-01-06 01:42:00,41.2,37.9,30.00,East,96,0.0,3.0,88,0.00,,,0.00,meteohub,2013-01-06 09:42:00,
2013-01-06 01:47:00,41.2,37.9,30.00,East,96,0.0,3.0,88,0.00,,,0.00,meteohub,2013-01-06 09:47:00,
2013-01-06 01:52:00,41.0,37.8,30.00,East,86,0.0,3.0,88,0.00,,,0.00,meteohub,2013-01-06 09:52:00,
2013-01-06 01:57:00,41.0,37.8,30.01,ENE,72,1.0,3.0,88,0.00,,,0.00,meteohub,2013-01-06 09:57:00,
2013-01-06 02:02:00,40.8,37.6,30.01,ENE,73,0.0,2.0,88,0.00,,,0.00,meteohub,2013-01-06 10:02:00,
2013-01-06 02:07:00,40.8,37.6,30.01,East,84,2.0,2.0,88,0.00,,,0.00,meteohub,2013-01-06 10:07:00,
2013-01-06 02:12:00,41.0,37.8,30.01,East,97,0.0,3.0,88,0.00,,,0.00,meteohub,2013-01-06 10:12:00,
2013-01-06 02:17:00,41.0,37.8,30.01,ENE,64,1.0,3.0,88,0.00,,,0.00,meteohub,2013-01-06 10:17:00,
2013-01-06 02:22:00,41.0,37.8,30.01,ENE,66,0.0,3.0,88,0.00,,,0.00,meteohub,2013-01-06 10:22:00,
2013-01-06 02:27:00,41.0,37.4,30.01,ENE,69,0.0,2.0,87,0.00,,,0.00,meteohub,2013-01-06 10:27:00,
2013-01-06 02:32:00,41.0,37.4,30.01,ENE,69,0.0,2.0,87,0.01,,,0.00,meteohub,2013-01-06 10:32:00,
2013-01-06 02:37:00,41.0,37.4,30.01,ENE,68,0.0,2.0,87,0.01,,,0.01,meteohub,2013-01-06 10:37:00,
2013-01-06 02:42:00,40.8,37.2,30.01,ENE,70,0.0,1.0,87,0.01,,,0.01,meteohub,2013-01-06 10:42:00,
2013-01-06 02:47:00,40.8,37.2,30.01,ENE,75,0.0,2.0,87,0.01,,,0.01,meteohub,2013-01-06 10:47:00,
2013-01-06 02:52:00,40.8,37.2,30.01,East,88,0.0,2.0,87,0.01,,,0.01,meteohub,2013-01-06 10:52:00,
2013-01-06 02:57:00,40.8,37.2,30.01,ENE,76,0.0,2.0,87,0.01,,,0.01,meteohub,2013-01-06 10:57:00,
2013-01-06 03:02:00,40.8,37.2,30.01,ENE,75,0.0,2.0,87,0.01,,,0.01,meteohub,2013-01-06 11:02:00,
2013-01-06 03:07:00,40.8,37.0,30.01,ENE,74,1.0,2.0,86,0.01,,,0.01,meteohub,2013-01-06 11:07:00,
2013-01-06 03:12:00,40.8,37.0,30.01,ENE,78,1.0,3.0,86,0.01,,,0.01,meteohub,2013-01-06 11:12:00,
2013-01-06 03:17:00,40.8,37.0,30.01,East,86,0.0,4.0,86,0.01,,,0.01,meteohub,2013-01-06 11:17:00,
2013-01-06 03:22:00,41.0,37.2,30.01,East,80,1.0,4.0,86,0.01,,,0.01,meteohub,2013-01-06 11:22:00,
2013-01-06 03:27:00,41.2,37.4,30.01,ENE,75,0.0,4.0,86,0.01,,,0.01,meteohub,2013-01-06 11:27:00,
2013-01-06 03:32:00,41.2,37.4,30.01,ENE,74,0.0,3.0,86,0.00,,,0.01,meteohub,2013-01-06 11:32:00,
2013-01-06 03:37:00,41.2,37.4,30.01,ENE,78,0.0,3.0,86,0.00,,,0.01,meteohub,2013-01-06 11:37:00,
2013-01-06 03:42:00,41.2,37.4,30.01,ENE,77,1.0,4.0,86,0.00,,,0.01,meteohub,2013-01-06 11:42:00,
2013-01-06 03:47:00,41.2,37.4,30.01,East,84,1.0,4.0,86,0.00,,,0.01,meteohub,2013-01-06 11:47:00,
2013-01-06 03:52:00,41.2,37.4,30.01,ENE,76,0.0,4.0,86,0.00,,,0.01,meteohub,2013-01-06 11:52:00,
2013-01-06 03:57:00,41.2,37.4,30.01,ENE,74,0.0,3.0,86,0.00,,,0.01,meteohub,2013-01-06 11:57:00,
2013-01-06 04:02:00,41.2,37.4,30.01,ENE,78,0.0,3.0,86,0.00,,,0.01,meteohub,2013-01-06 12:02:00,
2013-01-06 04:07:00,41.0,38.7,30.01,ENE,78,0.0,2.0,91,0.00,,,0.01,meteohub,2013-01-06 12:07:00,
2013-01-06 04:12:00,40.8,37.0,30.02,ENE,65,0.0,2.0,86,0.00,,,0.01,meteohub,2013-01-06 12:12:00,
2013-01-06 04:17:00,40.8,37.0,30.02,ENE,65,0.0,1.0,86,0.00,,,0.01,meteohub,2013-01-06 12:17:00,
2013-01-06 04:22:00,40.8,37.0,30.01,ENE,77,0.0,2.0,86,0.00,,,0.01,meteohub,2013-01-06 12:22:00,
2013-01-06 04:27:00,40.8,37.0,30.01,ENE,67,1.0,2.0,86,0.00,,,0.01,meteohub,2013-01-06 12:27:00,
2013-01-06 04:32:00,40.6,36.9,30.01,East,92,0.0,2.0,86,0.00,,,0.01,meteohub,2013-01-06 12:32:00,
2013-01-06 04:37:00,40.6,36.9,30.01,ENE,71,0.0,2.0,86,0.00,,,0.01,meteohub,2013-01-06 12:37:00,
2013-01-06 04:42:00,40.5,36.7,30.01,East,101,0.0,2.0,86,0.00,,,0.01,meteohub,2013-01-06 12:42:00,
2013-01-06 04:47:00,40.5,36.7,30.01,East,88,0.0,2.0,86,0.00,,,0.01,meteohub,2013-01-06 12:47:00,
2013-01-06 04:52:00,40.3,36.5,30.01,East,81,0.0,2.0,86,0.00,,,0.01,meteohub,2013-01-06 12:52:00,
2013-01-06 04:57:00,40.1,36.3,30.01,East,92,0.0,2.0,86,0.00,,,0.01,meteohub,2013-01-06 12:57:00,
2013-01-06 05:02:00,40.1,36.5,30.01,ENE,74,0.0,2.0,87,0.00,,,0.01,meteohub,2013-01-06 13:02:00,
2013-01-06 05:07:00,39.9,36.3,30.01,ENE,75,0.0,2.0,87,0.00,,,0.01,meteohub,2013-01-06 13:07:00,
2013-01-06 05:12:00,40.1,36.5,30.01,ESE,111,0.0,4.0,87,0.00,,,0.01,meteohub,2013-01-06 13:12:00,
2013-01-06 05:17:00,40.3,36.7,30.01,East,98,1.0,4.0,87,0.00,,,0.01,meteohub,2013-01-06 13:17:00,
2013-01-06 05:22:00,40.3,36.5,30.00,East,88,0.0,4.0,86,0.00,,,0.01,meteohub,2013-01-06 13:22:00,
2013-01-06 05:27:00,40.5,36.7,30.00,ENE,76,1.0,3.0,86,0.00,,,0.01,meteohub,2013-01-06 13:27:00,
2013-01-06 05:32:00,40.5,36.7,30.00,East,81,0.0,3.0,86,0.00,,,0.01,meteohub,2013-01-06 13:32:00,
2013-01-06 05:37:00,40.5,36.7,30.00,East,81,0.0,3.0,86,0.00,,,0.01,meteohub,2013-01-06 13:37:00,
2013-01-06 05:42:00,40.5,36.7,30.00,East,81,0.0,2.0,86,0.00,,,0.01,meteohub,2013-01-06 13:42:00,
2013-01-06 05:47:00,40.5,36.7,30.00,East,81,0.0,1.0,86,0.00,,,0.01,meteohub,2013-01-06 13:47:00,
2013-01-06 05:52:00,40.3,36.5,30.00,East,80,0.0,1.0,86,0.00,,,0.01,meteohub,2013-01-06 13:52:00,
2013-01-06 05:57:00,40.1,36.3,30.01,East,80,0.0,1.0,86,0.00,,,0.01,meteohub,2013-01-06 13:57:00,
2013-01-06 06:02:00,40.1,36.3,30.01,ENE,78,0.0,2.0,86,0.00,,,0.01,meteohub,2013-01-06 14:02:00,
2013-01-06 06:07:00,40.1,36.3,30.00,East,86,0.0,2.0,86,0.00,,,0.01,meteohub,2013-01-06 14:07:00,
2013-01-06 06:12:00,40.1,36.3,30.01,East,81,1.0,2.0,86,0.00,,,0.01,meteohub,2013-01-06 14:12:00,
2013-01-06 06:17:00,40.1,36.3,30.01,ESE,111,0.0,2.0,86,0.00,,,0.01,meteohub,2013-01-06 14:17:00,
2013-01-06 06:22:00,40.3,36.5,30.01,East,80,0.0,2.0,86,0.00,,,0.01,meteohub,2013-01-06 14:22:00,
2013-01-06 06:27:00,40.3,36.5,30.01,SE,128,0.0,3.0,86,0.00,,,0.01,meteohub,2013-01-06 14:27:00,
2013-01-06 06:32:00,40.5,36.7,30.02,ESE,102,2.0,3.0,86,0.00,,,0.01,meteohub,2013-01-06 14:32:00,
2013-01-06 06:37:00,40.5,36.7,30.01,East,82,0.0,3.0,86,0.00,,,0.01,meteohub,2013-01-06 14:37:00,
2013-01-06 06:42:00,40.5,36.7,30.01,ENE,73,1.0,3.0,86,0.00,,,0.01,meteohub,2013-01-06 14:42:00,
2013-01-06 06:47:00,40.6,36.9,30.01,ENE,71,1.0,4.0,86,0.00,,,0.01,meteohub,2013-01-06 14:47:00,
2013-01-06 06:52:00,40.6,36.9,30.01,East,80,3.0,4.0,86,0.00,,,0.01,meteohub,2013-01-06 14:52:00,
2013-01-06 06:57:00,40.6,36.9,30.01,ESE,108,0.0,4.0,86,0.00,,,0.01,meteohub,2013-01-06 14:57:00,
2013-01-06 07:02:00,40.6,36.5,30.01,East,80,0.0,5.0,85,0.00,,,0.01,meteohub,2013-01-06 15:02:00,
2013-01-06 07:07:00,40.6,36.5,30.01,East,79,1.0,5.0,85,0.00,,,0.01,meteohub,2013-01-06 15:07:00,
2013-01-06 07:12:00,40.6,36.5,30.01,East,81,1.0,3.0,85,0.00,,,0.01,meteohub,2013-01-06 15:12:00,
2013-01-06 07:17:00,40.5,36.3,30.01,East,84,0.0,3.0,85,0.00,,,0.01,meteohub,2013-01-06 15:17:00,
2013-01-06 07:22:00,40.5,36.7,30.01,East,86,0.0,3.0,86,0.00,,,0.01,meteohub,2013-01-06 15:22:00,
2013-01-06 07:27:00,40.5,36.7,30.01,East,86,0.0,3.0,86,0.00,,,0.01,meteohub,2013-01-06 15:27:00,
2013-01-06 07:32:00,40.5,36.7,30.01,ENE,67,0.0,3.0,86,0.00,,,0.01,meteohub,2013-01-06 15:32:00,
2013-01-06 07:37:00,40.5,36.7,30.01,East,79,0.0,2.0,86,0.00,,,0.01,meteohub,2013-01-06 15:37:00,
2013-01-06 07:42:00,40.5,36.7,30.01,East,83,0.0,2.0,86,0.00,,,0.01,meteohub,2013-01-06 15:42:00,
2013-01-06 07:47:00,40.5,36.7,30.01,East,88,0.0,2.0,86,0.00,,,0.01,meteohub,2013-01-06 15:47:00,
2013-01-06 07:53:00,40.5,36.7,30.01,East,84,0.0,2.0,86,0.00,,,0.01,meteohub,2013-01-06 15:53:00,
2013-01-06 07:58:00,40.5,36.7,30.02,East,95,0.0,2.0,86,0.00,,,0.01,meteohub,2013-01-06 15:58:00,
2013-01-06 08:03:00,40.5,36.7,30.02,ESE,103,2.0,3.0,86,0.00,,,0.01,meteohub,2013-01-06 16:03:00,
2013-01-06 08:08:00,40.6,36.9,30.02,ESE,110,0.0,4.0,86,0.00,,,0.01,meteohub,2013-01-06 16:08:00,
2013-01-06 08:13:00,40.6,36.5,30.01,ESE,103,1.0,4.0,85,0.00,,,0.01,meteohub,2013-01-06 16:13:00,
2013-01-06 08:18:00,40.8,36.7,30.01,ESE,108,0.0,4.0,85,0.00,,,0.01,meteohub,2013-01-06 16:18:00,
2013-01-06 08:23:00,40.8,36.7,30.01,East,96,2.0,5.0,85,0.00,,,0.01,meteohub,2013-01-06 16:23:00,
2013-01-06 08:28:00,41.0,36.9,30.01,ENE,75,1.0,5.0,85,0.00,,,0.01,meteohub,2013-01-06 16:28:00,
2013-01-06 08:33:00,41.0,36.9,30.02,East,90,0.0,5.0,85,0.00,,,0.01,meteohub,2013-01-06 16:33:00,
2013-01-06 08:38:00,41.2,37.0,30.02,East,83,1.0,4.0,85,0.00,,,0.01,meteohub,2013-01-06 16:38:00,
2013-01-06 08:43:00,41.2,37.0,30.02,NE,52,0.0,4.0,85,0.00,,,0.01,meteohub,2013-01-06 16:43:00,
2013-01-06 08:48:00,41.2,37.0,30.02,East,101,0.0,4.0,85,0.00,,,0.01,meteohub,2013-01-06 16:48:00,
2013-01-06 08:53:00,41.2,37.0,30.02,East,84,1.0,4.0,85,0.00,,,0.01,meteohub,2013-01-06 16:53:00,
2013-01-06 08:58:00,41.4,37.2,30.02,East,90,1.0,4.0,85,0.00,,,0.01,meteohub,2013-01-06 16:58:00,
2013-01-06 09:03:00,41.4,37.2,30.02,SE,128,2.0,4.0,85,0.00,,,0.01,meteohub,2013-01-06 17:03:00,
2013-01-06 09:08:00,41.5,37.4,30.02,East,101,1.0,5.0,85,0.00,,,0.01,meteohub,2013-01-06 17:08:00,
2013-01-06 09:13:00,41.5,37.4,30.02,ENE,59,0.0,5.0,85,0.00,,,0.01,meteohub,2013-01-06 17:13:00,
2013-01-06 09:18:00,41.5,37.4,30.02,East,82,0.0,5.0,85,0.00,,,0.01,meteohub,2013-01-06 17:18:00,
2013-01-06 09:24:00,41.7,37.6,30.02,ESE,112,0.0,5.0,85,0.00,,,0.01,meteohub,2013-01-06 17:24:00,
2013-01-06 09:28:00,41.9,37.8,30.03,East,101,1.0,5.0,85,0.00,,,0.01,meteohub,2013-01-06 17:28:00,
2013-01-06 09:34:00,42.1,37.9,30.03,East,86,1.0,6.0,85,0.00,,,0.01,meteohub,2013-01-06 17:34:00,
2013-01-06 09:39:00,42.1,38.1,30.03,ENE,75,3.0,6.0,86,0.00,,,0.01,meteohub,2013-01-06 17:39:00,
2013-01-06 09:44:00,42.3,38.3,30.03,ENE,76,1.0,5.0,86,0.00,,,0.01,meteohub,2013-01-06 17:44:00,
2013-01-06 09:49:00,42.3,38.3,30.03,ENE,72,0.0,5.0,86,0.00,,,0.01,meteohub,2013-01-06 17:49:00,
2013-01-06 09:54:00,42.3,38.3,30.03,SE,131,1.0,5.0,86,0.00,,,0.01,meteohub,2013-01-06 17:54:00,
2013-01-06 09:59:00,42.3,38.3,30.03,ESE,109,0.0,5.0,86,0.00,,,0.01,meteohub,2013-01-06 17:59:00,
2013-01-06 10:04:00,42.4,38.8,30.03,East,94,2.0,5.0,87,0.00,,,0.01,meteohub,2013-01-06 18:04:00,
2013-01-06 10:09:00,42.4,38.8,30.04,SE,130,1.0,5.0,87,0.00,,,0.01,meteohub,2013-01-06 18:09:00,
2013-01-06 10:14:00,42.3,38.7,30.04,South,175,1.0,5.0,87,0.00,,,0.01,meteohub,2013-01-06 18:14:00,
2013-01-06 10:19:00,42.4,38.8,30.04,NE,36,2.0,5.0,87,0.00,,,0.01,meteohub,2013-01-06 18:19:00,
2013-01-06 10:24:00,42.3,39.0,30.04,ESE,109,1.0,6.0,88,0.00,,,0.01,meteohub,2013-01-06 18:24:00,
2013-01-06 10:29:00,42.4,39.2,30.04,ESE,111,0.0,6.0,88,0.00,,,0.01,meteohub,2013-01-06 18:29:00,
2013-01-06 10:34:00,42.3,39.0,30.04,ESE,102,0.0,6.0,88,0.00,,,0.01,meteohub,2013-01-06 18:34:00,
2013-01-06 10:39:00,42.3,39.0,30.04,East,100,0.0,4.0,88,0.00,,,0.01,meteohub,2013-01-06 18:39:00,
2013-01-06 10:44:00,42.1,38.8,30.03,East,99,2.0,4.0,88,0.00,,,0.01,meteohub,2013-01-06 18:44:00,
2013-01-06 10:49:00,42.1,38.8,30.03,ESE,105,0.0,4.0,88,0.00,,,0.01,meteohub,2013-01-06 18:49:00,
2013-01-06 10:54:00,42.1,39.0,30.02,ESE,113,0.0,4.0,89,0.00,,,0.01,meteohub,2013-01-06 18:54:00,
2013-01-06 10:59:00,41.9,38.8,30.02,South,184,2.0,5.0,89,0.00,,,0.01,meteohub,2013-01-06 18:59:00,
2013-01-06 11:04:00,41.9,38.8,30.02,SE,126,1.0,6.0,89,0.00,,,0.01,meteohub,2013-01-06 19:04:00,
2013-01-06 11:09:00,41.9,38.8,30.02,SSE,148,2.0,6.0,89,0.00,,,0.01,meteohub,2013-01-06 19:09:00,
2013-01-06 11:14:00,41.9,38.8,30.02,ESE,117,2.0,5.0,89,0.00,,,0.01,meteohub,2013-01-06 19:14:00,
2013-01-06 11:19:00,41.9,38.8,30.02,ESE,110,3.0,6.0,89,0.00,,,0.01,meteohub,2013-01-06 19:19:00,
2013-01-06 11:24:00,41.9,38.8,30.02,ESE,112,2.0,6.0,89,0.00,,,0.01,meteohub,2013-01-06 19:24:00,
2013-01-06 11:29:00,42.1,39.0,30.02,ESE,121,5.0,6.0,89,0.00,,,0.01,meteohub,2013-01-06 19:29:00,
2013-01-06 11:34:00,42.1,39.0,30.02,East,87,0.0,4.0,89,0.00,,,0.01,meteohub,2013-01-06 19:34:00,
2013-01-06 11:39:00,42.1,39.0,30.02,ESE,108,1.0,5.0,89,0.00,,,0.01,meteohub,2013-01-06 19:39:00,
2013-01-06 11:47:00,42.3,39.2,30.02,ESE,117,3.0,4.0,89,0.00,,,0.01,meteohub,2013-01-06 19:47:00,
2013-01-06 11:52:00,42.1,39.0,30.01,East,94,2.0,5.0,89,0.00,,,0.01,meteohub,2013-01-06 19:52:00,
2013-01-06 11:57:00,42.1,39.0,30.01,East,94,2.0,5.0,89,0.00,,,0.01,meteohub,2013-01-06 19:57:00,
2013-01-06 12:02:00,42.1,39.0,30.01,ENE,78,4.0,5.0,89,0.00,,,0.01,meteohub,2013-01-06 20:02:00,
2013-01-06 12:07:00,42.1,38.8,30.01,East,96,0.0,6.0,88,0.00,,,0.01,meteohub,2013-01-06 20:07:00,
2013-01-06 12:11:00,42.3,39.0,30.01,ESE,109,2.0,6.0,88,0.00,,,0.01,meteohub,2013-01-06 20:11:00,
2013-01-06 12:14:00,42.3,39.0,30.01,ESE,107,2.0,6.0,88,0.00,,,0.01,meteohub,2013-01-06 20:14:00,
2013-01-06 12:19:00,42.3,39.0,30.01,NNW,330,1.0,6.0,88,0.00,,,0.01,meteohub,2013-01-06 20:19:00,
2013-01-06 12:24:00,42.3,39.0,30.00,ESE,117,0.0,6.0,88,0.00,,,0.01,meteohub,2013-01-06 20:24:00,
2013-01-06 12:30:00,42.3,39.0,30.00,East,81,2.0,4.0,88,0.00,,,0.01,meteohub,2013-01-06 20:30:00,
2013-01-06 12:35:00,42.1,38.8,30.01,East,83,0.0,4.0,88,0.00,,,0.01,meteohub,2013-01-06 20:35:00,
2013-01-06 12:40:00,42.1,38.8,30.01,ESE,105,2.0,5.0,88,0.00,,,0.01,meteohub,2013-01-06 20:40:00,
2013-01-06 12:45:00,42.1,38.8,30.01,East,84,2.0,5.0,88,0.00,,,0.01,meteohub,2013-01-06 20:45:00,
2013-01-06 12:50:00,42.1,38.8,30.01,East,96,2.0,5.0,88,0.00,,,0.01,meteohub,2013-01-06 20:50:00,
2013-01-06 12:55:00,42.1,38.8,30.00,East,82,1.0,5.0,88,0.01,,,0.02,meteohub,2013-01-06 20:55:00,
2013-01-06 13:00:00,41.9,38.7,30.00,East,81,0.0,5.0,88,0.01,,,0.02,meteohub,2013-01-06 21:00:00,
2013-01-06 13:01:00,41.9,38.7,30.00,ESE,108,3.0,5.0,88,0.01,,,0.02,meteohub,2013-01-06 21:01:00,
2013-01-06 13:06:00,41.9,38.7,30.00,ESE,102,1.0,3.0,88,0.01,,,0.02,meteohub,2013-01-06 21:06:00,
2013-01-06 13:11:00,41.9,38.8,30.00,East,91,1.0,3.0,89,0.01,,,0.02,meteohub,2013-01-06 21:11:00,
2013-01-06 13:16:00,41.7,38.7,30.00,East,91,1.0,4.0,89,0.01,,,0.02,meteohub,2013-01-06 21:16:00,
2013-01-06 13:21:00,41.7,38.7,30.00,East,98,0.0,4.0,89,0.01,,,0.02,meteohub,2013-01-06 21:21:00,
2013-01-06 13:26:00,41.7,38.7,30.00,ENE,71,1.0,4.0,89,0.01,,,0.02,meteohub,2013-01-06 21:26:00,
2013-01-06 13:31:00,41.7,38.7,29.99,East,94,2.0,5.0,89,0.01,,,0.02,meteohub,2013-01-06 21:31:00,
2013-01-06 13:36:00,41.7,38.7,29.99,East,92,1.0,5.0,89,0.02,,,0.02,meteohub,2013-01-06 21:36:00,
2013-01-06 13:41:00,41.7,38.7,29.99,ESE,117,3.0,5.0,89,0.02,,,0.02,meteohub,2013-01-06 21:41:00,
2013-01-06 13:46:00,41.5,38.5,29.99,ENE,57,0.0,5.0,89,0.02,,,0.02,meteohub,2013-01-06 21:46:00,
2013-01-06 13:51:00,41.5,38.5,29.99,ENE,58,1.0,5.0,89,0.02,,,0.02,meteohub,2013-01-06 21:51:00,
2013-01-06 13:56:00,41.5,38.5,29.99,East,83,2.0,5.0,89,0.02,,,0.03,meteohub,2013-01-06 21:56:00,
2013-01-06 14:01:00,41.5,38.5,29.99,East,91,2.0,5.0,89,0.02,,,0.03,meteohub,2013-01-06 22:01:00,
2013-01-06 14:07:00,41.4,38.3,29.99,ENE,78,3.0,5.0,89,0.02,,,0.03,meteohub,2013-01-06 22:07:00,
2013-01-06 14:11:00,41.4,38.3,29.99,East,95,3.0,5.0,89,0.02,,,0.03,meteohub,2013-01-06 22:11:00,
2013-01-06 14:17:00,41.4,38.3,29.99,NNE,17,0.0,5.0,89,0.02,,,0.03,meteohub,2013-01-06 22:17:00,
2013-01-06 14:22:00,41.4,38.3,29.99,East,84,4.0,5.0,89,0.02,,,0.03,meteohub,2013-01-06 22:22:00,
2013-01-06 14:27:00,41.2,38.1,29.98,East,96,1.0,6.0,89,0.02,,,0.03,meteohub,2013-01-06 22:27:00,
2013-01-06 14:32:00,41.2,38.1,29.98,ENE,71,1.0,6.0,89,0.02,,,0.03,meteohub,2013-01-06 22:32:00,
2013-01-06 14:37:00,41.2,38.1,29.98,East,94,0.0,6.0,89,0.01,,,0.03,meteohub,2013-01-06 22:37:00,
2013-01-06 14:42:00,41.2,38.1,29.98,East,82,1.0,6.0,89,0.01,,,0.03,meteohub,2013-01-06 22:42:00,
2013-01-06 14:47:00,41.2,38.1,29.98,East,80,2.0,6.0,89,0.01,,,0.03,meteohub,2013-01-06 22:47:00,
2013-01-06 14:52:00,41.2,38.1,29.98,ESE,107,1.0,4.0,89,0.00,,,0.03,meteohub,2013-01-06 22:52:00,
2013-01-06 14:57:00,41.2,38.1,29.98,NE,53,3.0,5.0,89,0.00,,,0.03,meteohub,2013-01-06 22:57:00,
2013-01-06 15:02:00,41.2,38.1,29.98,ENE,74,0.0,6.0,89,0.00,,,0.03,meteohub,2013-01-06 23:02:00,
2013-01-06 15:07:00,41.2,38.1,29.98,East,87,2.0,6.0,89,0.01,,,0.04,meteohub,2013-01-06 23:07:00,
2013-01-06 15:12:00,41.2,38.1,29.98,ENE,74,1.0,6.0,89,0.01,,,0.04,meteohub,2013-01-06 23:12:00,
2013-01-06 15:17:00,41.0,37.9,29.98,SE,145,0.0,4.0,89,0.01,,,0.04,meteohub,2013-01-06 23:17:00,
2013-01-06 15:22:00,41.0,38.3,29.98,East,92,1.0,4.0,90,0.01,,,0.04,meteohub,2013-01-06 23:22:00,
2013-01-06 15:27:00,40.8,38.1,29.97,East,101,1.0,5.0,90,0.02,,,0.05,meteohub,2013-01-06 23:27:00,
2013-01-06 15:32:00,40.8,38.1,29.97,East,84,1.0,5.0,90,0.02,,,0.05,meteohub,2013-01-06 23:32:00,
2013-01-06 15:37:00,40.6,37.9,29.97,ESE,114,3.0,5.0,90,0.02,,,0.05,meteohub,2013-01-06 23:37:00,
2013-01-06 15:42:00,40.6,37.9,29.97,East,94,0.0,5.0,90,0.02,,,0.05,meteohub,2013-01-06 23:42:00,
2013-01-06 15:47:00,40.6,37.6,29.97,ENE,72,1.0,4.0,89,0.02,,,0.05,meteohub,2013-01-06 23:47:00,
2013-01-06 15:52:00,40.5,37.4,29.97,ESE,113,0.0,4.0,89,0.02,,,0.05,meteohub,2013-01-06 23:52:00,
2013-01-06 15:57:00,40.5,37.4,29.97,East,86,1.0,3.0,89,0.02,,,0.05,meteohub,2013-01-06 23:57:00,
2013-01-06 16:02:00,40.3,37.2,29.97,ENE,78,1.0,3.0,89,0.02,,,0.05,meteohub,2013-01-07 00:02:00,
2013-01-06 16:07:00,40.3,37.2,29.97,ENE,76,3.0,4.0,89,0.01,,,0.05,meteohub,2013-01-07 00:07:00,
2013-01-06 16:12:00,40.3,37.2,29.97,East,89,0.0,4.0,89,0.01,,,0.05,meteohub,2013-01-07 00:12:00,
2013-01-06 16:49:00,40.1,37.0,29.96,ESE,118,2.0,4.0,89,0.01,,,0.06,meteohub,2013-01-07 00:49:00,
2013-01-06 16:54:00,40.1,37.0,29.96,East,100,0.0,4.0,89,0.01,,,0.06,meteohub,2013-01-07 00:54:00,
2013-01-06 16:59:00,40.1,37.0,29.95,East,87,0.0,4.0,89,0.01,,,0.06,meteohub,2013-01-07 00:59:00,
2013-01-06 17:04:00,40.1,37.0,29.95,East,95,2.0,5.0,89,0.01,,,0.06,meteohub,2013-01-07 01:04:00,
2013-01-06 17:09:00,40.1,37.0,29.95,ESE,110,0.0,5.0,89,0.01,,,0.06,meteohub,2013-01-07 01:09:00,
2013-01-06 17:14:00,40.1,37.0,29.95,ENE,78,1.0,5.0,89,0.01,,,0.06,meteohub,2013-01-07 01:14:00,
2013-01-06 17:19:00,40.3,37.2,29.95,ENE,75,1.0,5.0,89,0.01,,,0.06,meteohub,2013-01-07 01:19:00,
2013-01-06 17:24:00,40.3,37.2,29.95,East,98,0.0,5.0,89,0.01,,,0.06,meteohub,2013-01-07 01:24:00,
2013-01-06 17:29:00,40.3,37.2,29.95,SE,127,1.0,5.0,89,0.01,,,0.06,meteohub,2013-01-07 01:29:00,
2013-01-06 17:34:00,40.3,37.0,29.95,ESE,109,0.0,3.0,88,0.01,,,0.06,meteohub,2013-01-07 01:34:00,
2013-01-06 17:39:00,40.3,37.2,29.95,East,86,0.0,4.0,89,0.00,,,0.06,meteohub,2013-01-07 01:39:00,
2013-01-06 17:44:00,40.3,37.0,29.95,East,83,0.0,4.0,88,0.01,,,0.06,meteohub,2013-01-07 01:44:00,
2013-01-06 17:49:00,40.3,37.0,29.95,East,95,0.0,4.0,88,0.01,,,0.06,meteohub,2013-01-07 01:49:00,
2013-01-06 17:54:00,40.3,37.0,29.95,ESE,103,0.0,3.0,88,0.01,,,0.06,meteohub,2013-01-07 01:54:00,
2013-01-06 17:59:00,40.5,37.2,29.95,ENE,74,0.0,4.0,88,0.01,,,0.06,meteohub,2013-01-07 01:59:00,
2013-01-06 18:04:00,40.5,37.2,29.95,ENE,74,2.0,4.0,88,0.01,,,0.06,meteohub,2013-01-07 02:04:00,
2013-01-06 18:09:00,40.5,37.4,29.95,ESE,111,0.0,4.0,89,0.01,,,0.06,meteohub,2013-01-07 02:09:00,
2013-01-06 18:14:00,40.5,37.4,29.95,ENE,72,2.0,3.0,89,0.02,,,0.07,meteohub,2013-01-07 02:14:00,
2013-01-06 18:19:00,40.5,37.4,29.95,ESE,103,0.0,3.0,89,0.02,,,0.07,meteohub,2013-01-07 02:19:00,
2013-01-06 18:24:00,40.3,37.2,29.95,ESE,103,0.0,3.0,89,0.02,,,0.07,meteohub,2013-01-07 02:24:00,
2013-01-06 18:29:00,40.3,37.2,29.95,ENE,78,0.0,3.0,89,0.02,,,0.07,meteohub,2013-01-07 02:29:00,
2013-01-06 18:34:00,40.3,37.2,29.95,East,80,0.0,2.0,89,0.02,,,0.07,meteohub,2013-01-07 02:34:00,
2013-01-06 18:39:00,40.3,37.2,29.95,ENE,71,0.0,3.0,89,0.02,,,0.08,meteohub,2013-01-07 02:39:00,
2013-01-06 18:44:00,40.1,37.0,29.95,ENE,71,0.0,3.0,89,0.02,,,0.08,meteohub,2013-01-07 02:44:00,
2013-01-06 18:49:00,40.3,37.2,29.95,ENE,72,0.0,3.0,89,0.02,,,0.08,meteohub,2013-01-07 02:49:00,
2013-01-06 18:54:00,40.1,37.0,29.94,ENE,73,0.0,2.0,89,0.02,,,0.08,meteohub,2013-01-07 02:54:00,
2013-01-06 18:59:00,40.1,37.0,29.95,ENE,73,1.0,2.0,89,0.02,,,0.08,meteohub,2013-01-07 02:59:00,
2013-01-06 19:04:00,40.1,37.0,29.95,ENE,75,0.0,2.0,89,0.02,,,0.08,meteohub,2013-01-07 03:04:00,
2013-01-06 19:09:00,40.1,37.0,29.95,ESE,107,2.0,3.0,89,0.02,,,0.09,meteohub,2013-01-07 03:09:00,
2013-01-06 19:14:00,40.1,37.0,29.94,ESE,114,0.0,3.0,89,0.02,,,0.09,meteohub,2013-01-07 03:14:00,
2013-01-06 19:19:00,40.1,37.0,29.95,East,88,2.0,4.0,89,0.02,,,0.09,meteohub,2013-01-07 03:19:00,
2013-01-06 19:24:00,39.9,36.7,29.94,East,96,0.0,4.0,88,0.02,,,0.09,meteohub,2013-01-07 03:24:00,
2013-01-06 19:30:00,39.9,36.7,29.94,East,84,3.0,5.0,88,0.02,,,0.09,meteohub,2013-01-07 03:30:00,
2013-01-06 19:34:00,39.9,36.7,29.94,East,94,0.0,5.0,88,0.02,,,0.09,meteohub,2013-01-07 03:34:00,
2013-01-06 19:40:00,39.9,36.7,29.93,East,92,0.0,5.0,88,0.02,,,0.09,meteohub,2013-01-07 03:40:00,
2013-01-06 19:45:00,39.9,36.7,29.93,ENE,74,0.0,5.0,88,0.02,,,0.10,meteohub,2013-01-07 03:45:00,
2013-01-06 19:50:00,39.9,36.9,29.93,ENE,74,0.0,5.0,89,0.02,,,0.10,meteohub,2013-01-07 03:50:00,
2013-01-06 19:55:00,39.9,36.9,29.92,ENE,74,0.0,4.0,89,0.03,,,0.11,meteohub,2013-01-07 03:55:00,
2013-01-06 20:00:00,39.7,36.7,29.93,ENE,74,0.0,4.0,89,0.03,,,0.11,meteohub,2013-01-07 04:00:00,
2013-01-06 20:05:00,39.7,36.7,29.92,ENE,74,0.0,1.0,89,0.03,,,0.11,meteohub,2013-01-07 04:05:00,
2013-01-06 20:10:00,39.7,36.7,29.92,East,86,1.0,2.0,89,0.03,,,0.12,meteohub,2013-01-07 04:10:00,
2013-01-06 20:15:00,39.7,36.7,29.92,ENE,71,1.0,4.0,89,0.03,,,0.12,meteohub,2013-01-07 04:15:00,
2013-01-06 20:20:00,39.6,36.5,29.92,ENE,65,2.0,4.0,89,0.04,,,0.12,meteohub,2013-01-07 04:20:00,
2013-01-06 20:25:00,39.6,36.5,29.92,ESE,103,1.0,4.0,89,0.03,,,0.13,meteohub,2013-01-07 04:25:00,
2013-01-06 20:30:00,39.6,36.5,29.91,East,94,1.0,4.0,89,0.03,,,0.13,meteohub,2013-01-07 04:30:00,
2013-01-06 20:35:00,39.6,36.5,29.92,East,79,0.0,4.0,89,0.04,,,0.13,meteohub,2013-01-07 04:35:00,
2013-01-06 20:40:00,39.6,36.5,29.91,East,98,0.0,3.0,89,0.03,,,0.13,meteohub,2013-01-07 04:40:00,
2013-01-06 20:45:00,39.4,36.5,29.91,East,86,0.0,3.0,89,0.04,,,0.14,meteohub,2013-01-07 04:45:00,
2013-01-06 20:50:00,39.4,36.5,29.91,ESE,103,1.0,3.0,89,0.03,,,0.14,meteohub,2013-01-07 04:50:00,
2013-01-06 20:55:00,39.4,36.5,29.91,East,91,1.0,4.0,89,0.03,,,0.15,meteohub,2013-01-07 04:55:00,
2013-01-06 21:00:00,39.4,36.5,29.91,East,89,1.0,4.0,89,0.04,,,0.15,meteohub,2013-01-07 05:00:00,
2013-01-06 21:01:00,39.4,36.5,29.91,East,89,0.0,4.0,89,0.03,,,0.15,meteohub,2013-01-07 05:01:00,
2013-01-06 21:06:00,39.4,36.5,29.90,ESE,119,0.0,6.0,89,0.03,,,0.15,meteohub,2013-01-07 05:06:00,
2013-01-06 21:11:00,39.4,36.5,29.90,ENE,57,1.0,6.0,89,0.04,,,0.16,meteohub,2013-01-07 05:11:00,
2013-01-06 21:16:00,39.4,36.5,29.90,ESE,111,2.0,6.0,89,0.03,,,0.16,meteohub,2013-01-07 05:16:00,
2013-01-06 21:21:00,39.4,36.5,29.90,East,93,1.0,5.0,89,0.03,,,0.16,meteohub,2013-01-07 05:21:00,
2013-01-06 21:26:00,39.4,36.5,29.91,East,87,1.0,4.0,89,0.03,,,0.16,meteohub,2013-01-07 05:26:00,
2013-01-06 21:31:00,39.6,36.5,29.90,ESE,108,0.0,4.0,89,0.03,,,0.17,meteohub,2013-01-07 05:31:00,
2013-01-06 21:36:00,39.6,36.5,29.90,East,87,3.0,4.0,89,0.03,,,0.17,meteohub,2013-01-07 05:36:00,
2013-01-06 21:41:00,39.6,36.5,29.89,East,79,1.0,4.0,89,0.02,,,0.17,meteohub,2013-01-07 05:41:00,
2013-01-06 21:46:00,39.6,36.5,29.89,East,90,0.0,5.0,89,0.03,,,0.17,meteohub,2013-01-07 05:46:00,
2013-01-06 21:52:00,39.4,36.5,29.89,East,88,1.0,5.0,89,0.03,,,0.17,meteohub,2013-01-07 05:52:00,
2013-01-06 21:57:00,39.4,36.5,29.88,ENE,74,0.0,4.0,89,0.02,,,0.17,meteohub,2013-01-07 05:57:00,
2013-01-06 22:02:00,39.4,36.5,29.88,East,101,1.0,6.0,89,0.02,,,0.17,meteohub,2013-01-07 06:02:00,
2013-01-06 22:07:00,39.4,36.5,29.88,ESE,119,2.0,6.0,89,0.02,,,0.17,meteohub,2013-01-07 06:07:00,
2013-01-06 22:12:00,39.4,36.5,29.88,ESE,122,1.0,6.0,89,0.02,,,0.18,meteohub,2013-01-07 06:12:00,
2013-01-06 22:17:00,39.4,36.5,29.88,East,96,1.0,5.0,89,0.02,,,0.18,meteohub,2013-01-07 06:17:00,
2013-01-06 22:22:00,39.4,36.5,29.88,East,99,0.0,9.0,89,0.02,,,0.18,meteohub,2013-01-07 06:22:00,
2013-01-06 22:27:00,39.6,36.5,29.88,ESE,115,2.0,9.0,89,0.02,,,0.18,meteohub,2013-01-07 06:27:00,
2013-01-06 22:32:00,39.4,36.5,29.89,NNE,18,3.0,5.0,89,0.02,,,0.19,meteohub,2013-01-07 06:32:00,
2013-01-06 22:37:00,39.4,36.5,29.89,East,82,0.0,4.0,89,0.02,,,0.19,meteohub,2013-01-07 06:37:00,
2013-01-06 22:42:00,39.4,36.5,29.89,ENE,67,3.0,4.0,89,0.02,,,0.19,meteohub,2013-01-07 06:42:00,
2013-01-06 22:47:00,39.4,36.5,29.89,East,90,0.0,4.0,89,0.02,,,0.20,meteohub,2013-01-07 06:47:00,
2013-01-06 22:52:00,39.4,36.5,29.88,ENE,71,1.0,7.0,89,0.02,,,0.20,meteohub,2013-01-07 06:52:00,
2013-01-06 22:57:00,39.4,36.5,29.89,East,85,0.0,7.0,89,0.02,,,0.20,meteohub,2013-01-07 06:57:00,
2013-01-06 23:02:00,39.4,36.5,29.89,East,91,3.0,7.0,89,0.03,,,0.20,meteohub,2013-01-07 07:02:00,
2013-01-06 23:07:00,39.4,36.5,29.88,SSW,198,0.0,4.0,89,0.03,,,0.20,meteohub,2013-01-07 07:07:00,
2013-01-06 23:12:00,39.2,36.3,29.88,NE,49,2.0,4.0,89,0.03,,,0.21,meteohub,2013-01-07 07:12:00,
2013-01-06 23:17:00,39.0,36.1,29.88,ENE,69,2.0,4.0,89,0.04,,,0.22,meteohub,2013-01-07 07:17:00,
2013-01-06 23:22:00,39.0,36.1,29.88,ESE,114,2.0,5.0,89,0.04,,,0.22,meteohub,2013-01-07 07:22:00,
2013-01-06 23:27:00,39.0,36.1,29.88,ENE,66,1.0,5.0,89,0.04,,,0.23,meteohub,2013-01-07 07:27:00,
2013-01-06 23:32:00,38.8,36.0,29.87,East,86,3.0,6.0,89,0.04,,,0.23,meteohub,2013-01-07 07:32:00,
2013-01-06 23:37:00,38.8,36.0,29.87,ESE,105,2.0,6.0,89,0.04,,,0.23,meteohub,2013-01-07 07:37:00,
2013-01-06 23:42:00,38.8,36.0,29.87,ESE,106,0.0,4.0,89,0.04,,,0.23,meteohub,2013-01-07 07:42:00,
2013-01-06 23:47:00,38.8,36.0,29.86,East,93,3.0,5.0,89,0.03,,,0.23,meteohub,2013-01-07 07:47:00,
2013-01-06 23:52:00,38.8,36.0,29.85,ESE,106,0.0,5.0,89,0.04,,,0.24,meteohub,2013-01-07 07:52:00,
2013-01-06 23:57:00,38.8,36.0,29.86,East,89,3.0,5.0,89,0.03,,,0.24,meteohub,2013-01-07 07:57:00,